STARLINK-6346, 57243

Orbit data source: Space-Track

STARLINK-6346, 57243 is a payload satellite owned by SpaceX/Seattle (US) in LEO that was launched on Fri, 07 Jul 2023 UTC via an FALCON 9 launch vehicle from the Air Force Western Test Range (AFWTR). Payload-class satellites include a variety of spacecraft equipped with specific instruments for various scientific and technological missions. These include communications satellites like Starlink; space stations such as the ISS; scientific satellites like the Hubble; Earth observation satellites from companies like Planet Labs, Umbra, and HawkEye 360; GPS; miniature CubeSats for education and research; and military/defense satellites.

Loading next visibility...
Identifier
57243, 2023-094AB
Orbit
LEO
Country
Flag of USUS
Related business
Manufacturer
SpaceX/Seattle
Mission
Operational Commercial Communications
Bus & Motor
STARLINK, Unknown motor
Mass
305 kg wet, ~290 kg dry
Launch date (UTC)
2023-07-07 (3 years ago)
Launch vehicle
FALCON 9
Launch site
Air Force Western Test Range (AFWTR)
Object type
Payload
Rocket body
Debris
Shape & HBR
Box + 1 Pan, 10.1 m
Radar Cross Section
11.087 m², Large (>1 m²)

Expand to show TLE details & history
Last TLE update: 9 hours ago

TLE from 9 hours ago
0 STARLINK-6346
1 57243U 23094AB  26167.72020811  .00001147  00000-0  51218-4 0  9996
2 57243  43.0010 180.7719 0001387 263.9521  96.1173 15.27572523162387
Epoch: 2026-06-16T17:17Z
TLE epoch observation values (Epoch: 2026-06-16T17:17:05.980Z)
Latitude
-0°
Longitude
16.50879°
Altitude
482.949 km
Speed
7.626 km/s
True Right ascension
12h 03m 05s
True Declination
0° 00' 00"
Sunlit
Object was in daylight at epoch
Visualization orbit readout
Latitude
Unknown
Longitude
Unknown
Altitude
Unknown
Speed
Unknown
Apparent Right ascension
Unknown
Apparent Declination
Unknown
Sunlit
N/A
Visualization observer readout
Local Sidereal Time
13:21:55
Azimuth
Unknown
Elevation
Unknown
Doppler factor
Unknown
Orbital elements
Apogee altitude
485.968 km
Perigee altitude
484.065 km
Semi-major axis
6,863.153 km
Eccentricity
0.00014
Inclination
43.001°
RAAN
180.7719°
Arg. of periapsis
263.9521°
True anomaly
96.1331°
Mean anomaly
96.1173°
Eccentric anomaly
96.1252°
Mean motion
3.81731 °/min
Orbital period
94.31 mins
BSTAR
0.000051218
Loading maneuver chart data...
Computing Atmospheric mass density...
Loading historical data...
Loading historical data...
Loading historical data...
Loading historical data...
Loading historical data...
Loading historical data...
Loading historical data...

Documentation

Showing up to 5 results
|